QPF
0.00 0.00 0.00 0.00 0.00 0.00 0.01 0.01 0.01 0.01 0.01 0.01 0.01 0.01 0.01 0.01 0.01 0.02 0.02 0.02 0.02 0.02 0.03 0.03 0.03 0.03 0.03 0.03 0.04 0.04 0.04 0.05 0.05 0.02 0.01 0.02 0.02 0.02 0.02 0.02 0.02 0.02 0.02
0.00 0.00 0.00 0.00 0.00 0.00 0.00 0.00 0.01 0.01 0.01 0.01 0.01 0.01 0.01 0.01 0.01 0.02 0.02 0.02 0.02 0.02 0.02 0.02 0.02 0.02 0.02 0.02 0.03 0.03 0.03 0.04 0.05 0.04 0.03 0.03 0.02 0.02 0.02 0.02 0.02 0.02 0.02
0.00 0.00 0.00 0.00 0.00 0.00 0.00 0.00 0.00 0.00 0.00 0.00 0.00 0.00 0.00 0.00 0.00 0.00 0.01 0.01 0.01 0.01 0.01 0.01 0.01 0.01 0.01 0.01 0.02 0.02 0.02 0.03 0.04 0.04 0.03 0.03 0.02 0.02 0.02 0.02 0.03 0.03 0.03
0.00 0.00 0.00 0.00 0.00 0.00 0.00 0.00 0.00 0.00 0.00 0.00 0.00 0.00 0.00 0.00 0.00 0.00 0.00 0.00 0.00 0.00 0.00 0.00 0.00 0.01 0.01 0.01 0.01 0.01 0.01 0.02 0.03 0.03 0.03 0.03 0.02 0.02 0.03 0.03 0.03 0.03 0.02
0.00 0.00 0.00 0.00 0.00 0.00 0.00 0.00 0.00 0.00 0.00 0.00 0.00 0.00 0.00 0.00 0.00 0.00 0.00 0.00 0.00 0.00 0.00 0.00 0.00 0.00 0.00 0.01 0.01 0.01 0.01 0.02 0.02 0.02 0.02 0.02 0.02 0.02 0.02 0.02 0.02 0.02 0.02
0.00 0.00 0.00 0.00 0.00 0.00 0.00 0.00 0.00 0.00 0.00 0.00 0.00 0.00 0.00 0.00 0.00 0.00 0.00 0.00 0.00 0.00 0.00 0.00 0.00 0.00 0.00 0.01 0.01 0.01 0.01 0.01 0.02 0.02 0.02 0.02 0.01 0.01 0.01 0.02 0.02 0.03 0.02
0.00 0.00 0.00 0.00 0.00 0.00 0.00 0.00 0.00 0.00 0.00 0.00 0.00 0.00 0.00 0.00 0.01 0.00 0.01 0.00 0.00 0.00 0.00 0.00 0.00 0.00 0.00 0.00 0.00 0.00 0.00 0.01 0.01 0.01 0.01 0.01 0.01 0.01 0.01 0.02 0.03 0.03 0.03
0.00 0.00 0.00 0.00 0.00 0.00 0.00 0.00 0.00 0.00 0.00 0.00 0.00 0.00 0.00 0.01 0.01 0.01 0.01 0.00 0.00 0.00 0.00 0.00 0.00 0.00 0.00 0.00 0.00 0.00 0.00 0.00 0.00 0.00 0.01 0.01 0.01 0.01 0.01 0.03 0.04 0.05 0.05
0.00 0.00 0.00 0.00 0.00 0.00 0.00 0.00 0.00 0.00 0.00 0.00 0.00 0.00 0.00 0.00 0.01 0.00 0.01 0.00 0.00 0.00 0.00 0.00 0.00 0.00 0.00 0.00 0.00 0.00 0.00 0.00 0.00 0.00 0.01 0.01 0.01 0.01 0.02 0.03 0.03 0.04 0.05
0.00 0.00 0.00 0.00 0.00 0.00 0.00 0.00 0.00 0.00 0.00 0.00 0.01 0.01 0.01 0.01 0.01 0.01 0.01 0.00 0.00 0.00 0.00 0.00 0.00 0.00 0.00 0.00 0.00 0.00 0.00 0.00 0.00 0.00 0.00 0.00 0.01 0.01 0.02 0.02 0.03 0.04 0.05
0.00 0.00 0.00 0.00 0.00 0.01 0.01 0.01 0.01 0.01 0.01 0.01 0.01 0.01 0.01 0.01 0.01 0.01 0.01 0.01 0.01 0.00 0.00 0.00 0.00 0.00 0.00 0.00 0.00 0.00 0.00 0.00 0.00 0.00 0.00 0.00 0.01 0.01 0.01 0.01 0.02 0.03 0.05
0.01 0.01 0.01 0.01 0.02 0.02 0.02 0.02 0.02 0.02 0.02 0.02 0.02 0.01 0.01 0.01 0.00 0.00 0.00 0.00 0.00 0.01 0.00 0.00 0.00 0.01 0.00 0.00 0.00 0.00 0.01 0.01 0.01 0.01 0.01 0.01 0.01 0.01 0.01 0.01 0.01 0.02 0.04
0.01 0.01 0.01 0.01 0.01 0.01 0.01 0.01 0.01 0.01 0.01 0.01 0.01 0.01 0.01 0.01 0.01 0.01 0.00 0.00 0.00 0.00 0.01 0.01 0.01 0.00 0.00 0.00 0.00 0.01 0.01 0.01 0.01 0.01 0.01 0.01 0.01 0.01 0.02 0.02 0.02 0.03 0.04
0.02 0.01 0.01 0.01 0.01 0.01 0.01 0.01 0.01 0.01 0.01 0.01 0.01 0.01 0.01 0.01 0.01 0.01 0.01 0.01 0.01 0.01 0.01 0.01 0.01 0.01 0.01 0.01 0.01 0.01 0.01 0.01 0.01 0.02 0.02 0.02 0.02 0.02 0.02 0.02 0.03 0.03 0.04
0.01 0.01 0.02 0.02 0.01 0.01 0.01 0.02 0.02 0.02 0.01 0.01 0.01 0.01 0.01 0.01 0.01 0.01 0.01 0.01 0.01 0.01 0.01 0.01 0.01 0.01 0.01 0.01 0.01 0.01 0.01 0.01 0.01 0.02 0.02 0.02 0.02 0.02 0.02 0.03 0.03 0.03 0.04
0.01 0.01 0.01 0.01 0.02 0.02 0.02 0.02 0.02 0.02 0.02 0.02 0.02 0.02 0.02 0.02 0.02 0.02 0.01 0.01 0.01 0.01 0.01 0.01 0.01 0.01 0.01 0.01 0.01 0.01 0.01 0.01 0.01 0.02 0.02 0.02 0.03 0.03 0.03 0.03 0.03 0.03 0.03
0.01 0.01 0.01 0.01 0.01 0.02 0.02 0.02 0.02 0.02 0.02 0.02 0.03 0.03 0.03 0.02 0.02 0.02 0.01 0.01 0.01 0.01 0.01 0.01 0.01 0.01 0.01 0.01 0.01 0.01 0.01 0.02 0.02 0.02 0.02 0.02 0.03 0.03 0.03 0.03 0.03 0.03 0.04
0.01 0.01 0.01 0.01 0.01 0.01 0.01 0.01 0.02 0.02 0.01 0.02 0.02 0.02 0.02 0.01 0.01 0.01 0.01 0.01 0.01 0.01 0.01 0.01 0.01 0.01 0.01 0.01 0.01 0.01 0.02 0.02 0.02 0.02 0.02 0.03 0.03 0.03 0.04 0.04 0.04 0.04 0.04
0.01 0.01 0.01 0.01 0.01 0.01 0.01 0.01 0.01 0.01 0.01 0.01 0.01 0.01 0.01 0.01 0.01 0.01 0.01 0.01 0.01 0.01 0.01 0.01 0.01 0.01 0.01 0.01 0.01 0.02 0.02 0.02 0.02 0.02 0.03 0.03 0.03 0.04 0.04 0.04 0.04 0.04 0.04
0.01 0.01 0.00 0.00 0.00 0.00 0.00 0.00 0.00 0.00 0.00 0.01 0.01 0.01 0.01 0.01 0.01 0.01 0.00 0.01 0.01 0.01 0.01 0.01 0.01 0.01 0.01 0.01 0.01 0.01 0.02 0.02 0.02 0.02 0.02 0.03 0.03 0.03 0.03 0.03 0.03 0.04 0.04
0.01 0.01 0.01 0.01 0.00 0.00 0.00 0.00 0.00 0.00 0.00 0.00 0.01 0.01 0.01 0.01 0.01 0.01 0.01 0.01 0.01 0.01 0.01 0.01 0.01 0.01 0.01 0.01 0.01 0.01 0.01 0.02 0.02 0.02 0.02 0.02 0.03 0.03 0.03 0.03 0.03 0.03 0.04
0.01 0.01 0.01 0.01 0.00 0.00 0.01 0.01 0.01 0.01 0.01 0.01 0.01 0.01 0.01 0.01 0.01 0.01 0.01 0.01 0.01 0.01 0.01 0.01 0.01 0.01 0.01 0.01 0.02 0.02 0.02 0.02 0.02 0.02 0.02 0.02 0.02 0.03 0.03 0.03 0.03 0.03 0.03
0.02 0.01 0.01 0.01 0.01 0.01 0.01 0.01 0.01 0.01 0.01 0.01 0.01 0.01 0.01 0.01 0.01 0.01 0.01 0.01 0.01 0.01 0.01 0.01 0.01 0.01 0.01 0.01 0.02 0.02 0.02 0.02 0.02 0.02 0.03 0.03 0.02 0.02 0.03 0.03 0.03 0.03 0.03
0.02 0.02 0.01 0.01 0.01 0.01 0.01 0.01 0.01 0.01 0.01 0.01 0.01 0.01 0.01 0.01 0.01 0.01 0.01 0.01 0.01 0.01 0.01 0.01 0.01 0.01 0.01 0.01 0.01 0.01 0.02 0.02 0.02 0.03 0.03 0.03 0.03 0.03 0.03 0.03 0.03 0.03 0.03
0.02 0.02 0.02 0.01 0.01 0.02 0.02 0.01 0.01 0.01 0.01 0.01 0.01 0.01 0.01 0.01 0.01 0.01 0.01 0.01 0.01 0.01 0.01 0.01 0.01 0.01 0.01 0.01 0.01 0.01 0.01 0.01 0.02 0.02 0.03 0.03 0.03 0.03 0.02 0.03 0.03 0.03 0.03
0.02 0.02 0.02 0.02 0.02 0.02 0.02 0.02 0.02 0.02 0.01 0.01 0.01 0.01 0.01 0.01 0.01 0.01 0.01 0.01 0.01 0.01 0.01 0.01 0.01 0.01 0.01 0.01 0.01 0.01 0.01 0.01 0.02 0.02 0.03 0.04 0.03 0.03 0.02 0.03 0.03 0.03 0.03
MSLP
1005.69 1005.71 1005.69 1005.62 1005.51 1005.36 1005.22 1005.11 1005.06 1005.10 1005.24 1005.47 1005.79 1006.15 1006.54 1006.93 1007.30 1007.63 1007.94 1008.24 1008.54 1008.86 1009.21 1009.59 1009.98 1010.37 1010.74 1011.06 1011.32 1011.50 1011.62 1011.67 1011.69 1011.68 1011.65 1011.64 1011.63 1011.64 1011.66 1011.68 1011.71 1011.75 1011.77
1005.58 1005.59 1005.55 1005.44 1005.27 1005.06 1004.85 1004.67 1004.55 1004.53 1004.61 1004.80 1005.08 1005.42 1005.79 1006.16 1006.53 1006.87 1007.19 1007.50 1007.80 1008.13 1008.47 1008.84 1009.21 1009.59 1009.94 1010.25 1010.52 1010.73 1010.89 1011.01 1011.10 1011.18 1011.26 1011.34 1011.42 1011.51 1011.60 1011.67 1011.73 1011.76 1011.76
1005.29 1005.33 1005.30 1005.19 1005.00 1004.76 1004.51 1004.29 1004.14 1004.07 1004.12 1004.27 1004.51 1004.83 1005.18 1005.54 1005.91 1006.25 1006.58 1006.90 1007.21 1007.54 1007.88 1008.24 1008.60 1008.96 1009.30 1009.62 1009.89 1010.12 1010.32 1010.49 1010.66 1010.81 1010.98 1011.15 1011.32 1011.48 1011.63 1011.74 1011.81 1011.84 1011.81
1004.77 1004.87 1004.88 1004.80 1004.63 1004.41 1004.17 1003.96 1003.80 1003.73 1003.76 1003.89 1004.11 1004.40 1004.74 1005.09 1005.44 1005.79 1006.12 1006.45 1006.78 1007.12 1007.46 1007.82 1008.19 1008.54 1008.88 1009.19 1009.47 1009.72 1009.95 1010.16 1010.38 1010.59 1010.82 1011.06 1011.29 1011.51 1011.69 1011.83 1011.91 1011.93 1011.87
1004.06 1004.22 1004.29 1004.27 1004.17 1004.01 1003.83 1003.66 1003.54 1003.50 1003.54 1003.68 1003.89 1004.17 1004.48 1004.82 1005.16 1005.50 1005.84 1006.17 1006.51 1006.87 1007.23 1007.60 1007.97 1008.34 1008.68 1009.00 1009.29 1009.56 1009.80 1010.04 1010.27 1010.52 1010.78 1011.05 1011.32 1011.56 1011.77 1011.91 1011.99 1011.99 1011.90
1003.23 1003.45 1003.60 1003.66 1003.65 1003.58 1003.50 1003.42 1003.38 1003.39 1003.48 1003.63 1003.85 1004.12 1004.42 1004.73 1005.05 1005.38 1005.71 1006.05 1006.41 1006.78 1007.16 1007.56 1007.95 1008.34 1008.70 1009.04 1009.34 1009.61 1009.86 1010.10 1010.34 1010.59 1010.85 1011.12 1011.38 1011.62 1011.82 1011.96 1012.03 1012.00 1011.89
1002.44 1002.71 1002.92 1003.07 1003.16 1003.21 1003.24 1003.27 1003.33 1003.42 1003.56 1003.75 1003.98 1004.24 1004.52 1004.81 1005.11 1005.41 1005.73 1006.07 1006.44 1006.83 1007.24 1007.66 1008.09 1008.51 1008.89 1009.25 1009.56 1009.83 1010.08 1010.31 1010.53 1010.75 1010.98 1011.22 1011.46 1011.68 1011.86 1011.98 1012.03 1011.99 1011.86
1001.86 1002.15 1002.41 1002.63 1002.82 1002.98 1003.12 1003.26 1003.42 1003.59 1003.79 1004.01 1004.25 1004.50 1004.76 1005.02 1005.29 1005.57 1005.87 1006.21 1006.58 1006.98 1007.42 1007.87 1008.33 1008.77 1009.18 1009.55 1009.88 1010.15 1010.38 1010.58 1010.77 1010.96 1011.15 1011.34 1011.54 1011.72 1011.87 1011.98 1012.01 1011.97 1011.83
1001.64 1001.91 1002.18 1002.45 1002.71 1002.95 1003.19 1003.42 1003.65 1003.89 1004.14 1004.38 1004.62 1004.86 1005.09 1005.32 1005.56 1005.82 1006.10 1006.42 1006.79 1007.20 1007.65 1008.12 1008.60 1009.06 1009.49 1009.87 1010.19 1010.46 1010.67 1010.84 1010.99 1011.14 1011.28 1011.43 1011.58 1011.72 1011.85 1011.94 1011.97 1011.93 1011.80
1001.83 1002.05 1002.31 1002.58 1002.87 1003.16 1003.44 1003.73 1004.02 1004.30 1004.56 1004.82 1005.05 1005.27 1005.47 1005.68 1005.88 1006.11 1006.37 1006.68 1007.04 1007.45 1007.90 1008.37 1008.85 1009.31 1009.74 1010.11 1010.42 1010.67 1010.86 1011.00 1011.12 1011.22 1011.32 1011.42 1011.54 1011.66 1011.76 1011.84 1011.88 1011.85 1011.75
1002.45 1002.59 1002.79 1003.03 1003.30 1003.59 1003.89 1004.19 1004.49 1004.77 1005.04 1005.28 1005.50 1005.70 1005.88 1006.05 1006.24 1006.44 1006.68 1006.97 1007.31 1007.70 1008.13 1008.58 1009.03 1009.47 1009.87 1010.22 1010.51 1010.73 1010.89 1011.01 1011.09 1011.15 1011.22 1011.29 1011.38 1011.48 1011.58 1011.66 1011.70 1011.69 1011.62
1003.43 1003.48 1003.59 1003.77 1003.98 1004.23 1004.49 1004.77 1005.04 1005.30 1005.54 1005.76 1005.95 1006.13 1006.29 1006.44 1006.61 1006.80 1007.02 1007.28 1007.59 1007.95 1008.33 1008.74 1009.14 1009.53 1009.88 1010.19 1010.43 1010.61 1010.74 1010.83 1010.89 1010.93 1010.97 1011.02 1011.09 1011.17 1011.26 1011.34 1011.39 1011.40 1011.34
1004.67 1004.62 1004.63 1004.71 1004.84 1005.01 1005.21 1005.43 1005.65 1005.86 1006.06 1006.25 1006.42 1006.57 1006.72 1006.87 1007.02 1007.20 1007.40 1007.63 1007.90 1008.20 1008.53 1008.86 1009.19 1009.51 1009.79 1010.03 1010.22 1010.36 1010.45 1010.51 1010.55 1010.57 1010.59 1010.63 1010.68 1010.75 1010.82 1010.89 1010.93 1010.94 1010.89
1006.06 1005.91 1005.82 1005.80 1005.83 1005.91 1006.03 1006.16 1006.32 1006.48 1006.64 1006.79 1006.93 1007.07 1007.21 1007.35 1007.50 1007.66 1007.83 1008.03 1008.25 1008.49 1008.73 1008.98 1009.23 1009.45 1009.65 1009.82 1009.94 1010.04 1010.09 1010.13 1010.14 1010.15 1010.16 1010.18 1010.22 1010.26 1010.30 1010.34 1010.35 1010.33 1010.26
1007.51 1007.26 1007.08 1006.96 1006.90 1006.89 1006.92 1006.99 1007.08 1007.18 1007.30 1007.42 1007.54 1007.67 1007.79 1007.92 1008.06 1008.20 1008.34 1008.49 1008.65 1008.81 1008.98 1009.14 1009.28 1009.42 1009.53 1009.63 1009.70 1009.74 1009.77 1009.78 1009.78 1009.78 1009.77 1009.77 1009.77 1009.78 1009.78 1009.76 1009.72 1009.64 1009.51
1008.93 1008.61 1008.36 1008.16 1008.03 1007.95 1007.91 1007.92 1007.95 1008.01 1008.09 1008.18 1008.28 1008.39 1008.50 1008.61 1008.72 1008.83 1008.93 1009.03 1009.12 1009.21 1009.29 1009.36 1009.42 1009.48 1009.52 1009.55 1009.57 1009.59 1009.59 1009.59 1009.57 1009.55 1009.53 1009.50 1009.46 1009.42 1009.35 1009.26 1009.14 1008.97 1008.76
1010.29 1009.93 1009.64 1009.39 1009.21 1009.08 1009.00 1008.96 1008.96 1008.99 1009.03 1009.10 1009.17 1009.25 1009.33 1009.41 1009.48 1009.54 1009.59 1009.63 1009.66 1009.67 1009.67 1009.67 1009.66 1009.66 1009.65 1009.64 1009.64 1009.63 1009.62 1009.60 1009.58 1009.55 1009.50 1009.43 1009.35 1009.24 1009.10 1008.92 1008.70 1008.44 1008.13
1011.57 1011.21 1010.89 1010.64 1010.43 1010.29 1010.19 1010.13 1010.11 1010.11 1010.13 1010.16 1010.20 1010.24 1010.27 1010.30 1010.32 1010.32 1010.30 1010.27 1010.23 1010.18 1010.12 1010.07 1010.02 1009.97 1009.94 1009.91 1009.89 1009.88 1009.86 1009.84 1009.81 1009.75 1009.68 1009.57 1009.43 1009.26 1009.04 1008.78 1008.47 1008.11 1007.70
1012.77 1012.42 1012.12 1011.88 1011.69 1011.55 1011.45 1011.39 1011.36 1011.34 1011.34 1011.33 1011.32 1011.30 1011.28 1011.24 1011.18 1011.11 1011.02 1010.93 1010.83 1010.72 1010.62 1010.53 1010.46 1010.39 1010.35 1010.32 1010.30 1010.29 1010.27 1010.24 1010.19 1010.11 1009.99 1009.84 1009.65 1009.41 1009.12 1008.79 1008.41 1007.97 1007.48
1013.88 1013.56 1013.30 1013.09 1012.93 1012.82 1012.74 1012.69 1012.65 1012.61 1012.58 1012.53 1012.46 1012.38 1012.28 1012.16 1012.02 1011.88 1011.72 1011.56 1011.41 1011.26 1011.13 1011.02 1010.93 1010.87 1010.82 1010.79 1010.77 1010.75 1010.71 1010.66 1010.58 1010.46 1010.30 1010.10 1009.85 1009.56 1009.22 1008.84 1008.41 1007.92 1007.39
1014.86 1014.59 1014.38 1014.22 1014.10 1014.03 1013.97 1013.93 1013.89 1013.84 1013.76 1013.67 1013.54 1013.39 1013.21 1013.01 1012.80 1012.58 1012.36 1012.14 1011.94 1011.76 1011.61 1011.48 1011.39 1011.31 1011.26 1011.21 1011.17 1011.12 1011.05 1010.96 1010.82 1010.65 1010.43 1010.17 1009.88 1009.54 1009.16 1008.75 1008.30 1007.80 1007.26
1015.70 1015.49 1015.34 1015.23 1015.16 1015.12 1015.08 1015.05 1015.00 1014.92 1014.81 1014.66 1014.48 1014.26 1014.02 1013.75 1013.47 1013.19 1012.91 1012.65 1012.41 1012.19 1012.01 1011.86 1011.74 1011.64 1011.56 1011.47 1011.39 1011.28 1011.14 1010.97 1010.76 1010.51 1010.22 1009.90 1009.55 1009.17 1008.77 1008.35 1007.90 1007.43 1006.92
1016.39 1016.24 1016.14 1016.07 1016.04 1016.02 1016.00 1015.96 1015.89 1015.79 1015.65 1015.46 1015.22 1014.95 1014.65 1014.33 1014.00 1013.67 1013.35 1013.04 1012.76 1012.51 1012.29 1012.09 1011.92 1011.77 1011.62 1011.47 1011.30 1011.10 1010.87 1010.60 1010.29 1009.94 1009.56 1009.17 1008.75 1008.34 1007.92 1007.49 1007.07 1006.63 1006.17
1016.94 1016.84 1016.77 1016.74 1016.73 1016.71 1016.69 1016.64 1016.55 1016.42 1016.24 1016.02 1015.75 1015.44 1015.11 1014.75 1014.39 1014.02 1013.66 1013.31 1012.98 1012.68 1012.39 1012.13 1011.89 1011.64 1011.40 1011.14 1010.86 1010.55 1010.20 1009.81 1009.38 1008.93 1008.46 1007.98 1007.50 1007.04 1006.60 1006.17 1005.76 1005.35 1004.94
1017.36 1017.30 1017.26 1017.24 1017.23 1017.20 1017.16 1017.08 1016.97 1016.81 1016.61 1016.36 1016.07 1015.75 1015.39 1015.02 1014.62 1014.22 1013.82 1013.43 1013.04 1012.66 1012.29 1011.94 1011.59 1011.23 1010.87 1010.49 1010.08 1009.64 1009.17 1008.66 1008.13 1007.57 1007.01 1006.45 1005.91 1005.40 1004.92 1004.47 1004.06 1003.67 1003.30
1017.71 1017.67 1017.64 1017.61 1017.58 1017.53 1017.45 1017.34 1017.19 1017.01 1016.79 1016.52 1016.22 1015.89 1015.52 1015.13 1014.71 1014.28 1013.83 1013.37 1012.90 1012.43 1011.96 1011.49 1011.02 1010.54 1010.05 1009.54 1009.02 1008.46 1007.88 1007.28 1006.65 1006.02 1005.38 1004.76 1004.16 1003.60 1003.07 1002.59 1002.16 1001.76 1001.38
Thickness
5606 5607 5607 5607 5607 5607 5606 5606 5606 5605 5604 5603 5603 5601 5600 5597 5595 5592 5589 5587 5584 5582 5579 5575 5573 5569 5566 5563 5560 5556 5553 5550 5553 5561 5558 5554 5551 5549 5547 5544 5542 5541 5541
5590 5591 5591 5591 5591 5591 5590 5590 5590 5590 5590 5589 5587 5586 5584 5582 5580 5577 5575 5572 5570 5568 5565 5561 5559 5555 5552 5549 5546 5543 5540 5537 5535 5541 5543 5539 5537 5534 5532 5531 5530 5528 5527
5575 5574 5575 5575 5575 5575 5574 5574 5574 5574 5574 5573 5572 5570 5568 5566 5563 5562 5559 5557 5554 5552 5549 5546 5543 5540 5537 5533 5530 5528 5525 5523 5520 5521 5524 5523 5521 5519 5517 5516 5516 5515 5514
5559 5558 5558 5558 5558 5558 5558 5557 5557 5556 5556 5555 5554 5553 5551 5548 5546 5544 5542 5540 5537 5535 5533 5530 5527 5524 5520 5517 5515 5512 5509 5507 5505 5504 5506 5507 5505 5503 5499 5499 5501 5501 5501
5542 5541 5541 5540 5540 5539 5539 5539 5538 5538 5537 5537 5535 5534 5532 5530 5528 5525 5524 5522 5520 5518 5516 5513 5510 5507 5503 5499 5497 5494 5492 5489 5488 5487 5487 5488 5488 5485 5483 5482 5482 5485 5487
5524 5523 5523 5522 5520 5520 5519 5519 5519 5519 5518 5517 5516 5514 5512 5510 5508 5506 5504 5503 5502 5500 5498 5496 5493 5490 5487 5483 5480 5477 5474 5472 5471 5469 5469 5469 5471 5468 5466 5464 5463 5464 5471
5505 5504 5503 5502 5501 5500 5500 5499 5499 5499 5498 5497 5496 5494 5492 5490 5488 5487 5485 5484 5482 5481 5479 5477 5475 5472 5468 5466 5463 5461 5458 5454 5451 5449 5449 5451 5451 5450 5447 5447 5445 5445 5450
5486 5485 5484 5483 5482 5481 5480 5480 5480 5479 5478 5477 5476 5474 5472 5470 5469 5467 5466 5465 5463 5462 5459 5457 5454 5452 5449 5446 5444 5443 5442 5439 5435 5433 5432 5432 5432 5430 5428 5427 5427 5428 5432
5467 5466 5465 5464 5463 5462 5461 5461 5461 5460 5459 5458 5456 5454 5452 5451 5449 5448 5447 5446 5445 5443 5440 5437 5434 5432 5430 5427 5425 5425 5424 5423 5421 5418 5416 5415 5415 5414 5410 5408 5409 5409 5416
5449 5447 5446 5445 5444 5444 5443 5442 5441 5440 5439 5438 5436 5434 5433 5432 5431 5429 5428 5426 5425 5423 5420 5417 5414 5412 5410 5408 5406 5405 5405 5406 5405 5404 5403 5402 5400 5399 5396 5392 5390 5390 5393
5430 5428 5427 5425 5424 5424 5423 5422 5422 5421 5419 5418 5417 5415 5413 5412 5411 5410 5408 5406 5404 5402 5401 5399 5396 5394 5392 5390 5387 5386 5386 5386 5386 5386 5386 5386 5385 5384 5382 5379 5376 5374 5375
5409 5408 5407 5406 5406 5405 5404 5403 5402 5401 5400 5398 5397 5396 5394 5392 5391 5390 5388 5386 5384 5382 5381 5380 5378 5376 5374 5372 5370 5369 5368 5366 5366 5367 5368 5369 5368 5368 5367 5365 5364 5362 5361
5390 5390 5389 5388 5387 5386 5385 5384 5383 5382 5381 5380 5378 5377 5376 5374 5371 5370 5368 5367 5365 5362 5361 5361 5359 5357 5355 5354 5353 5351 5349 5347 5346 5347 5349 5350 5349 5348 5349 5350 5350 5350 5351
5372 5371 5371 5370 5370 5368 5367 5366 5365 5363 5362 5362 5360 5359 5358 5356 5353 5352 5350 5348 5346 5344 5342 5341 5340 5339 5337 5336 5334 5333 5331 5329 5327 5327 5328 5329 5329 5330 5331 5332 5333 5335 5338
5354 5354 5353 5353 5352 5350 5349 5348 5347 5347 5346 5344 5342 5341 5339 5338 5337 5334 5332 5330 5328 5326 5325 5323 5322 5321 5320 5319 5316 5314 5312 5311 5310 5308 5307 5308 5309 5311 5312 5314 5314 5315 5316
5337 5336 5335 5334 5333 5332 5331 5330 5329 5328 5328 5327 5325 5324 5321 5320 5319 5317 5315 5314 5311 5309 5307 5304 5302 5301 5300 5299 5297 5295 5293 5292 5291 5289 5288 5287 5288 5290 5292 5294 5295 5296 5297
5318 5318 5317 5316 5315 5314 5312 5311 5310 5309 5309 5308 5307 5305 5304 5303 5301 5299 5297 5295 5293 5290 5286 5283 5282 5280 5279 5277 5276 5274 5273 5272 5269 5268 5267 5266 5267 5269 5271 5273 5275 5276 5278
5298 5298 5297 5297 5297 5296 5294 5292 5291 5289 5288 5287 5287 5286 5284 5283 5281 5280 5278 5275 5272 5269 5265 5263 5261 5260 5259 5257 5256 5255 5254 5252 5250 5249 5248 5248 5248 5250 5252 5253 5254 5255 5257
5279 5279 5278 5278 5277 5277 5276 5274 5272 5270 5269 5267 5266 5266 5264 5262 5261 5260 5257 5254 5251 5249 5247 5244 5242 5241 5240 5238 5237 5236 5234 5233 5232 5231 5231 5230 5231 5232 5233 5234 5235 5236 5236
5262 5262 5261 5260 5259 5258 5257 5256 5254 5252 5251 5249 5248 5246 5245 5242 5240 5239 5237 5234 5232 5230 5229 5227 5225 5223 5222 5221 5220 5219 5217 5216 5215 5215 5214 5214 5214 5215 5216 5217 5217 5217 5218
5244 5244 5243 5241 5240 5239 5238 5237 5236 5234 5232 5230 5229 5228 5229 5225 5222 5220 5218 5217 5215 5213 5211 5210 5208 5206 5205 5203 5203 5202 5201 5200 5199 5199 5199 5199 5199 5199 5200 5200 5200 5200 5201
5226 5226 5225 5223 5222 5221 5219 5218 5216 5215 5213 5212 5211 5209 5209 5206 5204 5202 5201 5200 5198 5196 5194 5193 5192 5191 5189 5188 5187 5187 5187 5186 5185 5184 5184 5184 5184 5184 5185 5185 5185 5185 5185
5207 5208 5207 5205 5204 5202 5201 5199 5198 5196 5195 5193 5192 5191 5189 5187 5186 5185 5184 5183 5181 5180 5179 5177 5176 5176 5175 5173 5172 5172 5172 5172 5171 5169 5169 5170 5170 5170 5171 5171 5171 5171 5172
5189 5189 5188 5187 5186 5184 5183 5181 5180 5179 5177 5176 5174 5172 5172 5170 5169 5169 5167 5166 5166 5165 5164 5163 5162 5162 5161 5159 5159 5159 5158 5158 5157 5156 5156 5156 5157 5158 5158 5159 5159 5159 5159
5170 5170 5169 5168 5167 5166 5165 5164 5163 5161 5160 5159 5157 5156 5155 5154 5153 5153 5152 5151 5151 5150 5150 5149 5148 5148 5148 5147 5147 5147 5147 5146 5145 5144 5144 5145 5146 5147 5147 5147 5147 5147 5147
5152 5152 5151 5150 5150 5149 5148 5147 5146 5145 5144 5143 5142 5140 5139 5138 5138 5138 5138 5137 5137 5137 5136 5136 5136 5135 5136 5135 5136 5136 5137 5137 5137 5136 5135 5136 5137 5138 5137 5138 5138 5138 5138